Weather History for KOGB - July, 2013

Change the Weather History Date:

Tuesday, July 30, 2013

  Actual Average Record
Temperature  
Mean Temperature 81 °F 82 °F  
Max Temperature 90 °F 92 °F 100 °F (1981)
Min Temperature 71 °F 72 °F 61 °F (1983)
Degree Days  
Heating Degree Days 0 0  
Month to date heating degree days 0 0  
Since 1 June heating degree days 0 1  
Since 1 July heating degree days 0 0  
Cooling Degree Days 16 17  
Month to date cooling degree days 463 503  
Year to date cooling degree days 1149 1204  
Since 1 June cooling degree days 887 901  
Growing Degree Days 30 (Base 50)    
Moisture  
Dew Point 71 °F    
Average Humidity 84    
Maximum Humidity 100    
Minimum Humidity 52    
Precipitation  
Precipitation T in 0.14 in 1.35 in (1958)
Month to date precipitation 13.22 5.15  
Year to date precipitation 37.49 27.89  
Sea Level Pressure  
Sea Level Pressure 30.16 in    
Wind  
Wind Speed 1 mph (East)    
Max Wind Speed 8 mph    
Max Gust Speed 10 mph    
Visibility 6 miles    
Events Fog , Rain    
T = Trace of Precipitation, MM = Missing Value Source: NWS Daily Summary

Daily Weather History Graph

Daily Weather History Graph

Search for Another Location

Airport or City:

Trip Planner

Search our weather history database for the weather conditions in past years. The results will help you decide how hot, cold, wet, or windy it might be!

Date:

Astronomy

Jul. 30, 2013 Rise Set
Actual Time 6:34 AM EDT 8:24 PM EDT
Civil Twilight 6:07 AM EDT 8:51 PM EDT
Nautical Twilight 5:34 AM EDT 9:24 PM EDT
Astronomical Twilight 4:59 AM EDT 9:59 PM EDT
Moon 12:49 AM EDT (7/30) 2:44 PM EDT (7/30)
Length of Visible Light 14h 44m
Length of Day
13h 49m
Last Quarter, 41% of the Moon is Illuminated
Jul 30
Last Quarter
Aug 6
New
Aug 14
First Quarter
Aug 20
Full
Aug 28
Last Quarter

Hourly Weather History & Observations

Time (EDT) Temp. Heat Index Dew Point Humidity Pressure Visibility Wind Dir Wind Speed Gust Speed Precip Events Conditions
12:53 AM 73.0 °F - 70.0 °F 90% 30.14 in 6.0 mi Calm Calm - 0.00 in Rain Light Rain
1:53 AM 73.0 °F - 70.0 °F 90% 30.14 in 6.0 mi Calm Calm - 0.00 in   Clear
2:50 AM 71.6 °F - 69.8 °F 94% 30.15 in 5.0 mi SSE 3.5 mph - N/A   Partly Cloudy
2:53 AM 72.0 °F - 70.0 °F 93% 30.14 in 5.0 mi SE 3.5 mph - N/A   Partly Cloudy
3:15 AM 71.6 °F - 69.8 °F 94% 30.15 in 5.0 mi SSE 3.5 mph - N/A   Mostly Cloudy
3:53 AM 72.0 °F - 70.0 °F 93% 30.14 in 5.0 mi Calm Calm - N/A   Overcast
4:14 AM 71.6 °F - 69.8 °F 94% 30.14 in 1.8 mi Calm Calm - N/A   Overcast
4:22 AM 71.6 °F - 69.8 °F 94% 30.13 in 1.2 mi Calm Calm - N/A   Overcast
4:44 AM 71.6 °F - 69.8 °F 94% 30.14 in 0.5 mi Calm Calm - N/A Fog Fog
4:53 AM 72.0 °F - 70.0 °F 93% 30.14 in 0.2 mi Calm Calm - N/A Fog Fog
5:51 AM 71.6 °F - 69.8 °F 94% 30.15 in 1.0 mi Calm Calm - N/A   Mist
5:53 AM 71.1 °F - 70.0 °F 96% 30.14 in 1.0 mi Calm Calm - N/A   Mist
6:00 AM 71.6 °F - 69.8 °F 94% 30.15 in 0.5 mi Calm Calm - N/A Fog Fog
6:53 AM 71.1 °F - 69.1 °F 93% 30.16 in 0.2 mi Calm Calm - N/A Fog Fog
7:53 AM 71.1 °F - 70.0 °F 96% 30.18 in 0.2 mi Calm Calm - N/A Fog Fog
8:16 AM 71.6 °F - 69.8 °F 94% 30.19 in 1.8 mi Calm Calm - N/A   Overcast
8:27 AM 71.6 °F - 69.8 °F 94% 30.20 in 1.2 mi Calm Calm - N/A   Overcast
8:42 AM 73.4 °F - 71.6 °F 94% 30.19 in 2.0 mi Calm Calm - N/A   Overcast
8:48 AM 71.6 °F - 71.6 °F 100% 30.20 in 1.5 mi Calm Calm - N/A   Overcast
8:53 AM 72.0 °F - 71.1 °F 97% 30.19 in 1.0 mi Calm Calm - N/A   Overcast
9:00 AM 73.4 °F - 71.6 °F 94% 30.20 in 0.8 mi Calm Calm - N/A   Overcast
9:20 AM 73.4 °F - 71.6 °F 94% 30.20 in 1.8 mi Calm Calm - N/A   Overcast
9:24 AM 73.4 °F - 71.6 °F 94% 30.20 in 3.0 mi Calm Calm - N/A   Overcast
9:53 AM 75.9 °F - 71.1 °F 85% 30.19 in 8.0 mi Calm Calm - N/A   Overcast
10:17 AM 77.0 °F - 71.6 °F 83% 30.20 in 10.0 mi Calm Calm - N/A   Overcast
10:53 AM 77.0 °F - 72.0 °F 84% 30.19 in 10.0 mi East 4.6 mph - N/A   Overcast
11:26 AM 78.8 °F - 71.6 °F 78% 30.19 in 10.0 mi Calm Calm - N/A   Overcast
11:53 AM 80.1 °F 83.8 °F 72.0 °F 76% 30.19 in 9.0 mi East 3.5 mph - N/A   Overcast
12:25 PM 80.6 °F 85.4 °F 73.4 °F 79% 30.19 in 8.0 mi North - - N/A   Unknown
12:53 PM 82.0 °F 86.7 °F 72.0 °F 71% 30.18 in 9.0 mi ENE 5.8 mph - N/A   Unknown
1:01 PM 82.4 °F 88.2 °F 73.4 °F 74% 30.18 in 9.0 mi NE 4.6 mph - N/A   Mostly Cloudy
1:53 PM 84.9 °F 91.4 °F 73.0 °F 67% 30.16 in 10.0 mi North 4.6 mph - N/A   Scattered Clouds
2:07 PM 84.2 °F 89.6 °F 71.6 °F 66% 30.17 in 9.0 mi Calm Calm - N/A   Mostly Cloudy
2:25 PM 86.0 °F 91.8 °F 71.6 °F 62% 30.16 in 10.0 mi East 4.6 mph - N/A   Mostly Cloudy
2:53 PM 86.0 °F 92.2 °F 72.0 °F 63% 30.15 in 10.0 mi Variable 3.5 mph - N/A   Partly Cloudy
3:53 PM 87.1 °F 92.0 °F 70.0 °F 57% 30.14 in 10.0 mi Calm Calm - N/A   Scattered Clouds
4:53 PM 89.1 °F 93.7 °F 69.1 °F 52% 30.12 in 10.0 mi North 5.8 mph - N/A   Scattered Clouds
5:53 PM 88.0 °F 92.1 °F 69.1 °F 53% 30.12 in 10.0 mi East 3.5 mph - N/A   Clear
6:53 PM 88.0 °F 92.1 °F 69.1 °F 53% 30.11 in 10.0 mi Calm Calm - N/A   Clear
7:53 PM 81.0 °F 86.2 °F 73.9 °F 79% 30.12 in 10.0 mi Calm Calm - N/A   Clear
8:53 PM 79.0 °F - 73.0 °F 82% 30.13 in 8.0 mi Calm Calm - N/A   Clear
9:53 PM 77.0 °F - 73.0 °F 88% 30.14 in 7.0 mi Calm Calm - N/A   Clear
10:53 PM 77.0 °F - 73.0 °F 88% 30.14 in 7.0 mi Calm Calm - N/A   Clear
11:53 PM 77.0 °F - 73.0 °F 88% 30.14 in 6.0 mi Calm Calm - N/A   Clear